HST 1 20580U 90037B 23134.28596731 .00004379 00000-0 23122-3 0 9994 2 20580 28.4684 133.5338 0002414 17.8037 3.3547 15.13022088616580 ISS (ZARYA) 1 25544U 98067A 23134.36702060 .00013544 00000-0 24307-3 0 9993 2 25544 51.6405 136.1629 0006559 347.0403 154.1104 15.50197738396546 CXO 1 25867U 99040B 23136.22730015 .00000537 00000-0 00000-0 0 9990 2 25867 37.9070 201.0686 9048472 258.8950 0.1468 0.37811144 13068